Bemidji, MN

2:31 AM CDT on May 01, 2017 (GMT -0500)
Norway Court | | Change Station

Elev 1378 ft 47.54 °N, 94.88 °W | Updated 35 seconds ago

Partly Cloudy
Partly Cloudy
40.0 °F
Feels Like 40 °F
N
0.0
Wind Variable Wind from East

Today
High -- | Low -- °F
--% Chance of Precip.
Yesterday
High -- | Low -- °F
Precip. -- in
Pressure 29.79 in
Visibility 10.0 miles
Clouds Clear
Windchill 40 °F
Dew Point 26 °F
Humidity 59%
Rainfall 0.00 in
Snow Depth Not available.
6:02 AM 8:31 PM
Waxing Crescent, 30% visible
METAR KBJI 010714Z AUTO 05005KT 10SM CLR 05/M03 A2979 RMK AO2 T00451033
Pressure 29.79 in
Visibility 10.0 miles
Clouds Clear
Windchill 40 °F
Dew Point 26 °F
Humidity 59%
Rainfall 0.00 in
Snow Depth Not available.
6:02 AM 8:31 PM
Waxing Crescent, 30% visible
METAR KBJI 010714Z AUTO 05005KT 10SM CLR 05/M03 A2979 RMK AO2 T00451033

Get Severe Weather Alerts

Thanks for signing up!

Be on the lookout for a verification email in your inbox.

You'll start receiving the daily forecast at 8 AM.

×

10-Day Weather Forecast

Almanac

Astronomy

May. 01, 2017 Rise Set
Actual Time
Civil Twilight
Nautical Twilight
Astronomical Twilight
Moon
Length of Visible Light
Length of Day
Tomorrow will be .
, % of the Moon is Illuminated

Today's Extremes

State Highs State Lows

Community

WunderPhotos

WunderBlog® & News

Nearby

Air Quality

  Air Quality AQ Index Pollutant
Not available.

Snow Depth

Station Depth Elevation

Earthquake Activity

City Distance Mag. Time & Date
Minimum magnitude displayed is 2.5.

Coastal Water Temperatures

Place Temperature

Stations

Nearby Weather Stations

Station Location Temp. Windchill Dew Point Humidity Wind Precip. Elev Updated Type
                   

Watches & Warnings

There are currently no watches in effect.